[Iaude] MPEC N121: 2024 NU2 [a=2.27,e=0.88,i=29.9,H=19.4]
    mpec at cfa.harvard.edu 
    mpec at cfa.harvard.edu
       
    Tue Jul  9 12:44:56 EDT 2024
    
    
  
M.P.E.C. 2024-N121                                 Issued 2024 July 9, 16:35 UT
     The Minor Planet Electronic Circulars contain information on unusual
         minor planets, routine data on comets and natural satellites,
         and occasional editorial announcements.  They are published
    on behalf of Division F of the International Astronomical Union by the
          Minor Planet Center, Smithsonian Astrophysical Observatory,
                          Cambridge, MA 02138, U.S.A.
			  
             Prepared using the Tamkin Foundation Computer Network
                              MPC at CFA.HARVARD.EDU
            URL https://www.minorplanetcenter.net/    ISSN 1523-6714
                                    2024 NU2                                    
Observations:
     K24N02U  C2024 06 25.54691822 17 51.463+20 46 05.27         22.52GVEN121F52
     K24N02U  C2024 06 25.55481622 17 51.666+20 46 21.17         22.91GVEN121F52
     K24N02U  C2024 06 25.56276222 17 51.852+20 46 36.49         21.85GVEN121F52
     K24N02U  C2024 06 25.57072522 17 52.041+20 46 52.91         22.26GVEN121F52
     K24N02U* C2024 07 03.49156322 20 44.068+25 38 07.17         21.77wXEN121F52
     K24N02U  C2024 07 03.49221822 20 44.067+25 38 08.90         22.02wXEN121F52
     K24N02U  C2024 07 03.50469922 20 44.228+25 38 39.21         22.05wXEN121F52
     K24N02U  C2024 07 03.50535422 20 44.234+25 38 40.93         21.69wXEN121F52
     K24N02U  C2024 07 03.51790622 20 44.398+25 39 11.73         22.20wXEN121F52
     K24N02U  C2024 07 03.51856122 20 44.402+25 39 13.27         21.74wXEN121F52
     K24N02U  C2024 07 03.53110522 20 44.553+25 39 43.94         21.91wXEN121F52
     K24N02U  C2024 07 03.53175922 20 44.571+25 39 45.57         22.05wXEN121F52
     K24N02U  C2024 07 03.59364422 20 45.335+25 42 16.92         21.98GVEN121F52
     K24N02U  C2024 07 03.59447322 20 45.335+25 42 18.72         22.21GVEN121F52
     K24N02U  C2024 07 03.59530122 20 45.353+25 42 20.72         21.77GVEN121F52
     K24N02U  C2024 07 03.59613022 20 45.369+25 42 22.89         21.31GVEN121F52
     K24N02U KC2024 07 06.33350822 21 22.37 +27 37 52.4          21.6 GVEN121H21
     K24N02U KC2024 07 06.33928622 21 22.39 +27 38 07.8          22.0 GVEN121H21
     K24N02U KC2024 07 06.34362122 21 22.45 +27 38 19.1          21.7 GVEN121H21
     K24N02U KC2024 07 06.34689422 21 22.48 +27 38 27.4          22.0 GVEN121H21
     K24N02U 3C2024 07 06.52042522 21 24.440+27 46 07.64         21.84GVEN121T14
     K24N02U 3C2024 07 06.52140422 21 24.448+27 46 10.21         21.87GVEN121T14
     K24N02U 3C2024 07 06.52239022 21 24.455+27 46 12.84         21.91GVEN121T14
     K24N02U KC2024 07 07.30591922 21 32.29 +28 21 01.6          21.8 GVEN121H21
     K24N02U KC2024 07 07.30876522 21 32.31 +28 21 09.5          21.4 GVEN121H21
     K24N02U KC2024 07 07.31161122 21 32.33 +28 21 17.1          21.5 GVEN121H21
     K24N02U KC2024 07 07.31445522 21 32.34 +28 21 24.9          21.3 GVEN121H21
     K24N02U !C2024 07 07.42958 22 21 33.27 +28 26 36.9          20.5 GVEN121673
     K24N02U !C2024 07 07.43333 22 21 33.28 +28 26 47.0                VEN121673
     K24N02U HB2024 07 08.95876 22 21 44.80 +29 37 04.4                VEN121204
     K24N02U KB2024 07 08.99229 22 21 44.93 +29 38 39.6          21.9 GVEN121204
Observer details:
204 Schiaparelli Observatory.  Observer L. Buzzi.  0.84-m f/3.5 reflector +
    CMO.
673 Table Mountain Observatory, Wrightwood.  Observer J. Pittichova.  1.0-m
    f/15 reflector + CCD.
F52 Pan-STARRS 2, Haleakala.  Observers J. Herman, T. Lowe, P. Minguez, A.
    Schultz, I. Smith.  Measurers K. Chambers, T. de Boer, J. Fairlamb, H.
    Gao, M. Huber, C.-C. Lin, E. Magnier, Y. Ramanjooloo, R. Wainscoat, R.
    Weryk.  1.8-m Ritchey-Chretien + CCD.
H21 Astronomical Research Observatory, Westfield.  Observer R. Holmes.
    Measurers T. Linder, R. Holmes, L. Horn.  1.3-m f/4.0 astrograph + CCD,
    0.81-m f/4.0 astrograph + CCD.
T14 Canada-France-Hawaii Telescope, Maunakea.  Observers R. Wainscoat, H.
    Januszewski, H. Flewelling.  Measurers R. Weryk, R. Wainscoat.  3.6-m
    f/4.1 reflector + CCD.
Orbital elements:
2024 NU2                                                 Earth MOID = 0.4020 AU
Epoch 2024 Mar. 31.0 TT = JDT 2460400.5                 Veres                   
M 307.95475              (2000.0)            P               Q                  
n   0.28753267     Peri.  184.98365     -0.13088998     -0.85699683             
a   2.2734108      Node   273.20718     +0.92596844     +0.07393444             
e   0.8783539      Incl.   29.94733     +0.35418958     -0.50999032             
P   3.43           H   19.42          G   0.15           U   8                  
Residuals in seconds of arc
240625 F52  0.1-  0.2+    240703 F52  0.0   0.1-    240706 T14  0.0   0.0
240625 F52  0.1+  0.2+    240703 F52  0.1+  0.2+    240707 H21  0.3+  0.2+
240625 F52  0.0   0.4-    240703 F52  0.0   0.1-    240707 H21  0.3+  0.4+
240625 F52  0.0   0.1+    240703 F52  0.1+  0.1-    240707 H21  0.4+  0.3+
240703 F52  0.1+  0.2-    240703 F52  0.2+  0.1+    240707 H21  0.3+  0.4+
240703 F52  0.0   0.1-    240706 H21  0.1-  0.0     240707 673  0.1+  0.1+
240703 F52  0.0   0.3-    240706 H21  0.4-  0.2+    240707 673  0.1-  0.1+
240703 F52  0.1-  0.2-    240706 H21  0.1-  0.1+    240708 204  0.2-  0.2-
240703 F52  0.0   0.1-    240706 H21  0.0   0.2-    240708 204  0.1-  0.3-
240703 F52  0.0   0.1-    240706 T14  0.0   0.0
240703 F52  0.1-  0.1-    240706 T14  0.0   0.1-
Ephemeris:
2024 NU2                 a,e,i = 2.27, 0.88, 30                  q = 0.2766
Date    TT    R. A. (2000) Decl.     Delta      r    Elong.  Phase     V
2024 06 09    22 08 16.6 +13 01 57   1.5632  1.9859    98.5    30.4    23.2
...
2024 06 24    22 17 08.4 +19 55 26   1.2407  1.8091   106.1    32.7    22.6
...
2024 07 02    22 20 18.2 +24 38 44   1.0787  1.7089   109.2    34.2    22.2
...
2024 07 08    22 21 37.9 +28 52 33   0.9634  1.6309   110.9    35.6    21.9
2024 07 09    22 21 44.6 +29 39 03   0.9448  1.6176   111.1    35.9    21.8
2024 07 10    22 21 49.3 +30 26 54   0.9264  1.6043   111.2    36.2    21.8
...
2024 07 16    22 21 24.5 +35 45 36   0.8203  1.5226   111.5    38.4    21.4
...
2024 07 24    22 17 29.8 +44 35 09   0.6927  1.4088   109.6    42.8    21.0
...
2024 08 08    21 35 18.8 +68 30 47   0.5156  1.1787    95.2    58.9    20.5
M. P. C. Staff               (C) Copyright 2024 MPC           M.P.E.C. 2024-N121
    
    
More information about the Iaude
mailing list